TimeEDT,TemperatureF,Dew PointF,Humidity,Sea Level PressureIn,VisibilityMPH,Wind Direction,Wind SpeedMPH,Gust SpeedMPH,PrecipitationIn,Events,Conditions,WindDirDegrees,DateUTC
12:17 AM,53.6,53.6,100,30.16,1.5,Calm,Calm,-,N/A,,Clear,0,2012-10-04 04:17:00
12:34 AM,53.6,51.8,94,30.16,2.0,Calm,Calm,-,N/A,,Clear,0,2012-10-04 04:34:00
12:50 AM,53.6,53.6,100,30.16,0.8,Calm,Calm,-,N/A,,Clear,0,2012-10-04 04:50:00
12:53 AM,54.0,53.1,97,30.16,0.5,Calm,Calm,-,N/A,Fog,Fog,0,2012-10-04 04:53:00
12:56 AM,53.6,53.6,100,30.17,0.2,Calm,Calm,-,N/A,Fog,Fog,0,2012-10-04 04:56:00
1:08 AM,53.6,53.6,100,30.17,0.2,Calm,Calm,-,N/A,Fog,Fog,0,2012-10-04 05:08:00
1:15 AM,53.6,51.8,94,30.17,0.5,Calm,Calm,-,N/A,Fog,Fog,0,2012-10-04 05:15:00
1:19 AM,53.6,51.8,94,30.17,0.2,Calm,Calm,-,N/A,Fog,Fog,0,2012-10-04 05:19:00
1:31 AM,53.6,51.8,94,30.17,0.5,Calm,Calm,-,N/A,Fog,Fog,0,2012-10-04 05:31:00
1:41 AM,53.6,51.8,94,30.17,0.2,Calm,Calm,-,N/A,Fog,Fog,0,2012-10-04 05:41:00
1:47 AM,53.6,53.6,100,30.17,1.2,Calm,Calm,-,N/A,,Partly Cloudy,0,2012-10-04 05:47:00
1:53 AM,53.1,52.0,96,30.17,0.8,Calm,Calm,-,N/A,,Mist,0,2012-10-04 05:53:00
2:04 AM,51.8,51.8,100,30.17,0.2,Calm,Calm,-,N/A,Fog,Fog,0,2012-10-04 06:04:00
2:08 AM,51.8,51.8,100,30.18,0.5,Calm,Calm,-,N/A,Fog,Fog,0,2012-10-04 06:08:00
2:21 AM,53.6,51.8,94,30.18,0.2,Calm,Calm,-,N/A,Fog,Fog,0,2012-10-04 06:21:00
2:50 AM,51.8,51.8,100,30.18,1.0,Calm,Calm,-,N/A,,Mist,0,2012-10-04 06:50:00
2:53 AM,51.1,51.1,100,30.17,0.8,Calm,Calm,-,N/A,,Mist,0,2012-10-04 06:53:00
3:03 AM,51.8,50.0,94,30.18,0.2,Calm,Calm,-,N/A,Fog,Fog,0,2012-10-04 07:03:00
3:53 AM,51.1,51.1,100,30.17,0.2,Calm,Calm,-,N/A,Fog,Fog,0,2012-10-04 07:53:00
4:53 AM,51.1,51.1,100,30.18,0.2,Calm,Calm,-,N/A,Fog,Fog,0,2012-10-04 08:53:00
5:53 AM,51.1,50.0,96,30.19,0.2,Calm,Calm,-,N/A,Fog,Fog,0,2012-10-04 09:53:00
6:34 AM,50.0,50.0,100,30.21,0.5,Calm,Calm,-,N/A,Fog,Fog,0,2012-10-04 10:34:00
6:46 AM,51.8,50.0,94,30.21,0.2,Calm,Calm,-,N/A,Fog,Fog,0,2012-10-04 10:46:00
6:53 AM,51.1,50.0,96,30.21,7.0,Calm,Calm,-,N/A,,Mostly Cloudy,0,2012-10-04 10:53:00
7:53 AM,51.1,50.0,96,30.22,8.0,Calm,Calm,-,N/A,Fog,Patches of Fog,0,2012-10-04 11:53:00
8:53 AM,55.0,54.0,96,30.23,8.0,Calm,Calm,-,0.00,Rain,Light Rain,0,2012-10-04 12:53:00
9:53 AM,57.0,55.0,93,30.23,8.0,Calm,Calm,-,0.00,,Mostly Cloudy,0,2012-10-04 13:53:00
10:53 AM,63.0,57.9,84,30.23,10.0,SSW,5.8,-,N/A,,Clear,200,2012-10-04 14:53:00
11:53 AM,70.0,59.0,68,30.22,10.0,South,8.1,-,N/A,,Clear,190,2012-10-04 15:53:00
12:53 PM,73.9,57.9,57,30.22,10.0,WSW,10.4,20.7,N/A,,Clear,240,2012-10-04 16:53:00
1:53 PM,75.9,59.0,56,30.19,10.0,SSW,18.4,23.0,N/A,,Scattered Clouds,200,2012-10-04 17:53:00
2:53 PM,77.0,57.9,52,30.17,10.0,SSW,17.3,-,N/A,,Scattered Clouds,210,2012-10-04 18:53:00
3:53 PM,77.0,57.0,50,30.16,10.0,SW,13.8,18.4,N/A,,Partly Cloudy,220,2012-10-04 19:53:00
4:53 PM,75.9,55.0,48,30.15,10.0,SSW,15.0,-,N/A,,Partly Cloudy,210,2012-10-04 20:53:00
5:53 PM,75.0,55.9,51,30.16,10.0,SSW,9.2,-,N/A,,Scattered Clouds,210,2012-10-04 21:53:00
6:53 PM,69.1,55.9,63,30.15,10.0,SSW,6.9,-,N/A,,Clear,200,2012-10-04 22:53:00
7:53 PM,64.0,55.9,75,30.16,10.0,SSW,4.6,-,N/A,,Clear,210,2012-10-04 23:53:00
8:53 PM,61.0,57.0,87,30.16,10.0,SSW,4.6,-,N/A,,Clear,210,2012-10-05 00:53:00
9:53 PM,61.0,55.9,83,30.17,10.0,Calm,Calm,-,N/A,,Clear,0,2012-10-05 01:53:00
10:53 PM,57.9,55.9,93,30.17,8.0,Calm,Calm,-,N/A,,Clear,0,2012-10-05 02:53:00
11:53 PM,57.0,55.0,93,30.16,7.0,ENE,3.5,-,N/A,,Clear,70,2012-10-05 03:53:00